Change the Weather History Date:

Wednesday, January 9, 2013

  Actual Average (KBMQ) Record (KBMQ)
Temperature  
Mean Temperature 50 °F -  
Max Temperature 57 °F 57 °F 78 °F (2003)
Min Temperature 44 °F 37 °F 25 °F (1999)
Degree Days  
Heating Degree Days 14    
Moisture  
Dew Point 53 °F    
Average Humidity 99    
Maximum Humidity 100    
Minimum Humidity 88    
Precipitation  
Precipitation 1.07 in - - ()
Sea Level Pressure  
Sea Level Pressure 29.97 in    
Wind  
Wind Speed 4 mph (NNW)    
Max Wind Speed 9 mph    
Max Gust Speed 17 mph    
Visibility 8 miles    
Events Rain    
Averages and records for this station are not official NWS values.
T = Trace of Precipitation, MM = Missing Value Source: NWS Daily Summary

Daily Weather History Graph

Daily Weather History Graph

Search for Another Location

Airport or City:

Trip Planner

Search our weather history database for the weather conditions in past years. The results will help you decide how hot, cold, wet, or windy it might be!

Date:

Astronomy

Jan. 09, 2013 Rise Set
Actual Time 6:31 AM MST 4:50 PM MST
Civil Twilight 6:05 AM MST 5:16 PM MST
Nautical Twilight 5:35 AM MST 5:46 PM MST
Astronomical Twilight 5:06 AM MST 6:15 PM MST
Moon 4:12 AM MST (1/9) 2:53 PM MST (1/9)
Length of Visible Light 11h 10m
Length of Day
10h 18m
Waning Crescent, 6% of the Moon is Illuminated
Jan 9
Waning Crescent
Jan 11
New
Jan 18
First Quarter
Jan 26
Full
Feb 3
Last Quarter

Hourly Weather History & Observations

Time (MST) Temp. Dew Point Humidity Pressure Visibility Wind Dir Wind Speed Gust Speed Precip Events Conditions
12:15 AM 50.0 °F 50.0 °F 100% 29.98 in 7.0 mi NW 3.5 mph - 0.01 in Rain Rain
12:35 AM 50.0 °F 50.0 °F 100% 30.01 in 7.0 mi Calm Calm - 0.04 in Rain Heavy Rain
12:55 AM 50.0 °F 50.0 °F 100% 30.02 in 4.0 mi WNW 3.5 mph - 0.11 in Rain Heavy Rain
1:15 AM 50.0 °F 50.0 °F 100% 30.01 in 3.0 mi NNW 3.5 mph - 0.07 in Rain Heavy Rain
1:35 AM 50.0 °F 50.0 °F 100% 30.00 in 4.0 mi NNW 5.8 mph - 0.17 in Rain Heavy Rain
1:55 AM 51.8 °F 51.8 °F 100% 29.99 in 4.0 mi North 5.8 mph - 0.25 in Rain Rain
2:15 AM 51.8 °F 51.8 °F 100% 29.98 in 7.0 mi North 6.9 mph - 0.05 in Rain Rain
2:35 AM 51.8 °F 51.8 °F 100% 29.98 in 5.0 mi North 3.5 mph - 0.11 in Rain Rain
2:55 AM 53.6 °F 53.6 °F 100% 29.98 in 5.0 mi NNE 6.9 mph - 0.18 in Rain Heavy Rain
3:15 AM 53.6 °F 53.6 °F 100% 29.97 in 10.0 mi North 6.9 mph 17.3 mph 0.02 in Rain Rain
3:35 AM 53.6 °F 53.6 °F 100% 29.98 in 10.0 mi NNE 8.1 mph - 0.04 in Rain Rain
3:55 AM 53.6 °F 53.6 °F 100% 29.97 in 10.0 mi NNE 4.6 mph - 0.05 in Rain Rain
4:15 AM 55.4 °F 55.4 °F 100% 29.95 in 10.0 mi NNE 6.9 mph - N/A Rain Light Rain
4:35 AM 55.4 °F 55.4 °F 100% 29.97 in 10.0 mi NNE 3.5 mph - 0.01 in Rain Rain
4:55 AM 55.4 °F 55.4 °F 100% 29.95 in 7.0 mi NNE 8.1 mph - 0.04 in Rain Rain
5:15 AM 55.4 °F 55.4 °F 100% 29.97 in 10.0 mi Calm Calm - 0.01 in Rain Rain
5:35 AM 55.4 °F 55.4 °F 100% 29.96 in 5.0 mi North 4.6 mph - 0.06 in Rain Heavy Rain
5:55 AM 55.4 °F 55.4 °F 100% 29.98 in 10.0 mi NW 3.5 mph - 0.07 in Rain Light Rain
6:15 AM 55.4 °F 55.4 °F 100% 29.99 in 4.0 mi NNE 9.2 mph - 0.05 in Rain Rain
6:35 AM 55.4 °F 55.4 °F 100% 29.98 in 10.0 mi North 3.5 mph - 0.08 in Rain Light Rain
6:55 AM 55.4 °F 55.4 °F 100% 29.98 in 10.0 mi Calm Calm - 0.08 in   Drizzle
7:35 AM 55.4 °F 55.4 °F 100% 30.00 in 10.0 mi North 3.5 mph - N/A   Overcast
7:55 AM 55.4 °F 55.4 °F 100% 30.02 in 10.0 mi North 3.5 mph - N/A Rain Light Rain
8:15 AM 55.4 °F 55.4 °F 100% 30.01 in 3.0 mi North 4.6 mph - 0.08 in Rain Heavy Rain
8:35 AM 55.4 °F 55.4 °F 100% 30.01 in 4.0 mi NNW 6.9 mph - 0.16 in Rain Rain
8:55 AM 55.4 °F 55.4 °F 100% 30.01 in 3.0 mi North 4.6 mph - 0.18 in   Heavy Drizzle
9:15 AM 55.4 °F 55.4 °F 100% 30.00 in 3.0 mi North 4.6 mph - 0.03 in Rain Rain
9:35 AM 53.6 °F 53.6 °F 100% 30.01 in 3.0 mi North 8.1 mph - 0.05 in   Heavy Drizzle
9:55 AM 53.6 °F 53.6 °F 100% 30.02 in 2.0 mi NNW 4.6 mph - 0.07 in   Heavy Drizzle
10:15 AM 53.6 °F 53.6 °F 100% 30.00 in 2.0 mi NW 3.5 mph - 0.01 in   Heavy Drizzle
11:15 AM 53.6 °F 53.6 °F 100% 29.98 in 7.0 mi NNW 6.9 mph - 0.01 in Rain Light Rain
11:35 AM 53.6 °F 53.6 °F 100% 29.98 in 10.0 mi NNW 5.8 mph - 0.02 in Rain Light Rain
11:55 AM 53.6 °F 53.6 °F 100% 29.94 in 10.0 mi North 6.9 mph - 0.03 in Rain Light Rain
12:15 PM 51.8 °F 51.8 °F 100% 29.88 in 10.0 mi North 9.2 mph 17.3 mph N/A Rain Light Rain
12:35 PM 51.8 °F 51.8 °F 100% 29.88 in 10.0 mi North 8.1 mph - N/A   Overcast
1:15 PM 53.6 °F 53.6 °F 100% 29.85 in 10.0 mi Calm Calm - N/A   Mostly Cloudy
1:35 PM 53.6 °F 53.6 °F 100% 29.87 in 10.0 mi Calm Calm - N/A   Mostly Cloudy
1:55 PM 55.4 °F 53.6 °F 94% 29.88 in 10.0 mi Calm Calm - N/A   Overcast
2:15 PM 57.2 °F 53.6 °F 88% 29.90 in 10.0 mi WSW 3.5 mph - N/A   Overcast
2:35 PM 55.4 °F 53.6 °F 94% 29.92 in 10.0 mi WSW 4.6 mph - N/A   Overcast
2:55 PM 55.4 °F 53.6 °F 94% 29.91 in 10.0 mi WSW 4.6 mph - N/A   Overcast
3:15 PM 55.4 °F 53.6 °F 94% 29.93 in 10.0 mi WSW 3.5 mph - N/A   Overcast
3:35 PM 55.4 °F 55.4 °F 100% 29.95 in 10.0 mi WSW 6.9 mph - N/A   Overcast
3:55 PM 55.4 °F 53.6 °F 94% 29.95 in 10.0 mi WSW 5.8 mph - N/A   Overcast
4:15 PM 55.4 °F 53.6 °F 94% 29.94 in 10.0 mi WSW 4.6 mph - N/A   Overcast
4:35 PM 55.4 °F 53.6 °F 94% 29.95 in 10.0 mi Calm Calm - N/A   Overcast
4:55 PM 55.4 °F 53.6 °F 94% 29.96 in 10.0 mi West 3.5 mph - N/A   Overcast
5:15 PM 55.4 °F 53.6 °F 94% 29.97 in 10.0 mi Calm Calm - N/A   Overcast
5:35 PM 53.6 °F 53.6 °F 100% 29.97 in 10.0 mi Calm Calm - N/A   Overcast
6:15 PM 53.6 °F 53.6 °F 100% 29.96 in 10.0 mi West 3.5 mph - N/A   Overcast
6:35 PM 51.8 °F 51.8 °F 100% 29.97 in 10.0 mi Calm Calm - N/A   Scattered Clouds
6:55 PM 50.0 °F 50.0 °F 100% 29.97 in 10.0 mi Calm Calm - N/A   Clear
7:35 PM 51.8 °F 51.8 °F 100% 29.97 in 10.0 mi SW 3.5 mph - N/A   Mostly Cloudy
7:55 PM 50.0 °F 50.0 °F 100% 29.97 in 10.0 mi Calm Calm - N/A   Mostly Cloudy
8:15 PM 50.0 °F 50.0 °F 100% 29.97 in 10.0 mi Calm Calm - N/A   Scattered Clouds
8:35 PM 50.0 °F 50.0 °F 100% 29.98 in 10.0 mi Calm Calm - N/A   Mostly Cloudy
8:55 PM 50.0 °F 50.0 °F 100% 29.99 in 10.0 mi Calm Calm - N/A   Mostly Cloudy
9:15 PM 51.8 °F 51.8 °F 100% 30.00 in 10.0 mi Calm Calm - N/A   Overcast
9:35 PM 51.8 °F 51.8 °F 100% 30.00 in 10.0 mi Calm Calm - N/A   Overcast
9:55 PM 50.0 °F 50.0 °F 100% 30.00 in 10.0 mi Calm Calm - N/A   Overcast
10:15 PM 50.0 °F 50.0 °F 100% 30.00 in 7.0 mi Calm Calm - N/A   Scattered Clouds
10:35 PM 46.4 °F 46.4 °F 100% 30.00 in 2.5 mi Calm Calm - N/A   Scattered Clouds
10:55 PM 48.2 °F 48.2 °F 100% 30.00 in 7.0 mi WSW 3.5 mph - N/A   Scattered Clouds
11:15 PM 46.4 °F 46.4 °F 100% 30.00 in 7.0 mi Calm Calm - N/A   Clear
11:35 PM 44.6 °F 44.6 °F 100% 29.99 in 7.0 mi Calm Calm - N/A   Clear
11:55 PM 44.6 °F 44.6 °F 100% 29.99 in 7.0 mi Calm Calm - N/A   Clear